Location: Cactus School
(34.5700°N, 118.0931°W)
Time: 03:30:09
(UTC-07:00)

Courier 1B - Pass Details

Date: 28 April 2024
Orbit: 962 x 1208 km, 28.3° (Epoch: 23 May)

Event Time Altitude Azimuth Distance (km) Brightness Sun altitude
Exits shadow 05:03:43 16° 241° (WSW) 2,568 9.0 -12.4°
Maximum altitude 05:07:07 22° 207° (SSW) 2,195 8.9 -11.8°
Drops below altitude 10° 05:12:16 10° 159° (SSE) 2,872 9.9 -10.8°
Sets 05:15:35 0° 145° (SE) 3,779 10.7 -10.2°
